Francistown, Botswana

12:47 AM CAT on March 23, 2017 (GMT +0200)
Francistown

Weather History for FBFT - May, 2013

Change the Weather History Date:

Tuesday, May 14, 2013

  Actual Average Record
Temperature  
Mean Temperature 64 °F -  
Max Temperature 78 °F 75 °F 89 °F (2015)
Min Temperature 49 °F 44 °F 35 °F (2000)
Degree Days  
Heating Degree Days 2    
Growing Degree Days 14 (Base 50)    
Moisture  
Dew Point 48 °F    
Average Humidity 57    
Maximum Humidity 88    
Minimum Humidity 23    
Precipitation  
Precipitation 0.00 in - - ()
Sea Level Pressure  
Sea Level Pressure 30.25 in    
Wind  
Wind Speed 5 mph ()    
Max Wind Speed 12 mph    
Max Gust Speed -    
Visibility 6.1 miles    
Events      
Averages and records for this station are not official NWS values.
T = Trace of Precipitation, MM = Missing Value Source: Averaged Metar Reports

Daily Weather History Graph

Daily Weather History Graph

Search for Another Location

Airport or City:

Trip Planner

Search our weather history database for the weather conditions in past years. The results will help you decide how hot, cold, wet, or windy it might be!

Date:

Astronomy

May. 14, 2013 Rise Set
Actual Time 6:32 AM CAT 5:39 PM CAT
Civil Twilight 6:09 AM CAT 6:03 PM CAT
Nautical Twilight 5:42 AM CAT 6:30 PM CAT
Astronomical Twilight 5:15 AM CAT 6:56 PM CAT
Moon 9:57 AM CAT (5/14) 9:18 PM CAT (5/14)
Length of Visible Light 11h 53m
Length of Day
11h 07m
Waxing Crescent, 17% of the Moon is Illuminated
May 14
Waxing Crescent
May 18
First Quarter
May 25
Full
May 31
Last Quarter
Jun 8
New

Hourly Weather History & Observations

Time (CAT) Temp. Dew Point Humidity Pressure Visibility Wind Dir Wind Speed Gust Speed Precip Events Conditions
12:00 AM 59.0 °F 50.0 °F 72% 30.30 in - ESE 6.9 mph - N/A   Clear
2:00 AM 59 °F 51 °F 67%  in 6 mi ESE 6.9 mph - -  
3:00 AM 55.4 °F 51.8 °F 88% 30.27 in - ESE 5.8 mph - N/A   Clear
4:00 AM 55.4 °F 50.0 °F 82% 30.27 in - SE 4.6 mph - N/A   Clear
5:00 AM 53.6 °F 50.0 °F 88% 30.27 in - SE 2.3 mph - N/A   Clear
6:00 AM 51.8 °F 48.2 °F 88% 30.27 in - Variable 1.2 mph - N/A   Clear
7:00 AM 50.0 °F 46.4 °F 87% 30.30 in - Calm Calm - N/A   Clear
8:00 AM 57 °F 51 °F 74%  in 6 mi NE 3.5 mph - -   Partly Cloudy
8:00 AM 57.2 °F 51.8 °F 82% 30.30 in - NE 3.5 mph - N/A   Clear
9:00 AM 64.4 °F 51.8 °F 64% 30.33 in - ENE 6.9 mph - N/A   Clear
10:00 AM 69.8 °F 50.0 °F 49% 30.33 in - NE 4.6 mph - N/A   Clear
11:00 AM 73.4 °F 50.0 °F 44% 30.30 in - SE 11.5 mph - N/A   Clear
12:00 PM 75.2 °F 50.0 °F 41% 30.27 in - ESE 4.6 mph - N/A   Clear
1:00 PM 77.0 °F 48.2 °F 36% 30.24 in 6.2 mi Variable 2.3 mph - N/A   Partly Cloudy
2:00 PM 78 °F 47 °F 23%  in 6 mi East 5.8 mph - -   Partly Cloudy
2:00 PM 78.8 °F 48.2 °F 34% 30.21 in 6.2 mi East 5.8 mph - N/A   Partly Cloudy
3:00 PM 78.8 °F 46.4 °F 32% 30.18 in 6.2 mi SSE 6.9 mph - N/A   Partly Cloudy
4:00 PM 78.8 °F 46.4 °F 32% 30.18 in - South 5.8 mph - N/A   Clear
5:00 PM 77.0 °F 46.4 °F 34% 30.18 in - ESE 6.9 mph - N/A   Clear
6:00 PM 73.4 °F 46.4 °F 38% 30.18 in - SE 8.1 mph - N/A   Clear
7:00 PM 66.2 °F 46.4 °F 49% 30.18 in - SE 5.8 mph - N/A   Clear
8:00 PM 64.4 °F 46.4 °F 52% 30.21 in - ESE 5.8 mph - N/A   Clear
9:00 PM 62.6 °F 44.6 °F 52% 30.21 in - ESE 6.9 mph - N/A   Clear
10:00 PM 59.0 °F 44.6 °F 59% 30.21 in - SE 4.6 mph - N/A   Clear
11:00 PM 57.2 °F 44.6 °F 63% 30.21 in - SE 4.6 mph - N/A   Clear